| time (UTC) | temp F | wind direction | speed MPH | gust MPH | rain 1hr in | rain 24hr in | rain mn in | humidity % | barometer mb |
| 20260502163603 | 55 | 120 | 0.0 | 1.0 | 0.02 | 0.20 | 0.20 | 98 | 1012.9 |
| 20260502162103 | 55 | 27 | 0.0 | 1.0 | 0.05 | 0.20 | 0.20 | 97 | 1013.1 |
| 20260502161103 | 55 | 339 | 0.0 | 0.0 | 0.07 | 0.20 | 0.20 | 97 | 1013.2 |
| 20260502160104 | 55 | 339 | 0.0 | 0.0 | 0.10 | 0.20 | 0.20 | 97 | 1013.3 |
| 20260502151103 | 55 | 114 | 0.0 | 0.0 | 0.13 | 0.13 | 0.13 | 95 | 1014.0 |
| 20260502123604 | 65 | 119 | 2.0 | 6.0 | 0.00 | 0.00 | 0.00 | 62 | 1015.8 |
| 20260502122603 | 65 | 138 | 2.0 | 6.0 | 0.00 | 0.00 | 0.00 | 63 | 1015.9 |
| 20260502120104 | 65 | 323 | 0.0 | 3.0 | 0.00 | 0.00 | 0.00 | 62 | 1016.1 |
| 20260502115103 | 66 | 132 | 3.0 | 6.0 | 0.00 | 0.00 | 0.00 | 62 | 1016.3 |
| 20260502114103 | 66 | 98 | 1.0 | 2.0 | 0.00 | 0.00 | 0.00 | 63 | 1016.3 |
| 20260502113604 | 65 | 112 | 1.0 | 3.0 | 0.00 | 0.00 | 0.00 | 64 | 1016.4 |
| 20260502113104 | 65 | 98 | 1.0 | 7.0 | 0.00 | 0.00 | 0.00 | 64 | 1016.5 |
| 20260502111605 | 64 | 120 | 2.0 | 3.0 | 0.00 | 0.00 | 0.00 | 64 | 1016.6 |
| 20260502111103 | 64 | 138 | 0.0 | 2.0 | 0.00 | 0.00 | 0.00 | 65 | 1016.8 |
| 20260502110104 | 63 | 128 | 2.0 | 3.0 | 0.00 | 0.00 | 0.00 | 66 | 1016.9 |
| 20260502105603 | 63 | 140 | 0.0 | 3.0 | 0.00 | 0.00 | 0.00 | 66 | 1016.8 |
| 20260502104602 | 64 | 126 | 4.0 | 7.0 | 0.00 | 0.00 | 0.00 | 66 | 1017.1 |
| 20260502103603 | 63 | 134 | 2.0 | 7.0 | 0.00 | 0.00 | 0.00 | 68 | 1017.3 |
| 20260502102103 | 63 | 130 | 3.0 | 8.0 | 0.00 | 0.00 | 0.00 | 66 | 1017.6 |
| 20260502101603 | 62 | 142 | 2.0 | 3.0 | 0.00 | 0.00 | 0.00 | 67 | 1017.6 |
| 20260502100602 | 62 | 117 | 1.0 | 6.0 | 0.00 | 0.00 | 0.00 | 66 | 1017.6 |
| 20260502090104 | 61 | 141 | 1.0 | 3.0 | 0.00 | 0.00 | 0.00 | 73 | 1018.0 |
| 20260502070604 | 51 | 98 | 0.0 | 2.0 | 0.00 | 0.00 | 0.00 | 90 | 1018.5 |
| 20260502065603 | 50 | 111 | 0.0 | 0.0 | 0.00 | 0.00 | 0.00 | 92 | 1018.7 |
| 20260502064103 | 49 | 117 | 0.0 | 1.0 | 0.00 | 0.00 | 0.00 | 93 | 1018.8 |
| 20260502062103 | 48 | 121 | 0.0 | 1.0 | 0.00 | 0.00 | 0.00 | 94 | 1018.9 |
| 20260502061103 | 47 | 121 | 0.0 | 1.0 | 0.00 | 0.00 | 0.00 | 94 | 1018.9 |
| 20260502060603 | 47 | 121 | 0.0 | 1.0 | 0.00 | 0.00 | 0.00 | 94 | 1019.0 |
| 20260502055603 | 46 | 124 | 0.0 | 1.0 | 0.00 | 0.00 | 0.00 | 94 | 1019.0 |
| 20260502055103 | 46 | 116 | 0.0 | 1.0 | 0.00 | 0.00 | 0.00 | 94 | 1018.9 |
| 20260502054103 | 46 | 116 | 0.0 | 1.0 | 0.00 | 0.00 | 0.00 | 94 | 1019.0 |
| 20260502053103 | 45 | 116 | 0.0 | 0.0 | 0.00 | 0.00 | 0.00 | 94 | 1018.9 |
| 20260502052103 | 45 | 116 | 0.0 | 0.0 | 0.00 | 0.00 | 0.00 | 94 | 1018.9 |
| 20260502050603 | 45 | 116 | 0.0 | 0.0 | 0.00 | 0.00 | 0.00 | 94 | 1018.9 |
| 20260502045103 | 45 | 116 | 0.0 | 0.0 | 0.00 | 0.00 | 0.00 | 94 | 1018.8 |
| 20260502044104 | 45 | 116 | 0.0 | 0.0 | 0.00 | 0.00 | 0.00 | 94 | 1018.9 |
| 20260502043104 | 45 | 116 | 0.0 | 0.0 | 0.00 | 0.00 | 0.00 | 94 | 1018.8 |
| 20260502042103 | 45 | 116 | 0.0 | 1.0 | 0.00 | 0.00 | 0.00 | 94 | 1018.9 |
| 20260502041103 | 45 | 116 | 0.0 | 0.0 | 0.00 | 0.00 | 0.00 | 94 | 1018.9 |
| 20260502035103 | 45 | 116 | 0.0 | 0.0 | 0.00 | 0.00 | 0.00 | 94 | 1019.1 |
| 20260502034603 | 45 | 116 | 0.0 | 0.0 | 0.00 | 0.00 | 0.00 | 94 | 1019.2 |
| 20260502032604 | 45 | 116 | 0.0 | 0.0 | 0.00 | 0.00 | 0.00 | 93 | 1019.3 |
| 20260502032104 | 45 | 116 | 0.0 | 0.0 | 0.00 | 0.00 | 0.00 | 93 | 1019.4 |
| 20260502031603 | 45 | 116 | 0.0 | 0.0 | 0.00 | 0.00 | 0.00 | 93 | 1019.4 |
| 20260502030604 | 45 | 116 | 0.0 | 0.0 | 0.00 | 0.00 | 0.00 | 94 | 1019.5 |
| 20260502025603 | 46 | 116 | 0.0 | 0.0 | 0.00 | 0.00 | 0.00 | 93 | 1019.5 |
| 20260502024604 | 45 | 116 | 0.0 | 0.0 | 0.00 | 0.00 | 0.00 | 93 | 1019.5 |
| 20260502023604 | 46 | 116 | 0.0 | 1.0 | 0.00 | 0.00 | 0.00 | 92 | 1019.6 |
| 20260502021603 | 46 | 134 | 0.0 | 1.0 | 0.00 | 0.00 | 0.00 | 92 | 1019.6 |
| 20260502021103 | 46 | 134 | 0.0 | 1.0 | 0.00 | 0.00 | 0.00 | 92 | 1019.7 |
| 20260502014604 | 46 | 139 | 0.0 | 1.0 | 0.00 | 0.00 | 0.00 | 93 | 1019.8 |
| 20260502013603 | 46 | 132 | 0.0 | 1.0 | 0.00 | 0.00 | 0.00 | 93 | 1020.0 |
| 20260502013103 | 46 | 135 | 0.0 | 1.0 | 0.00 | 0.00 | 0.00 | 93 | 1020.0 |
| 20260502011603 | 46 | 135 | 0.0 | 1.0 | 0.00 | 0.00 | 0.00 | 92 | 1019.9 |
| 20260502011103 | 47 | 134 | 0.0 | 1.0 | 0.00 | 0.00 | 0.00 | 92 | 1020.0 |
| 20260502005603 | 47 | 119 | 0.0 | 0.0 | 0.00 | 0.00 | 0.00 | 92 | 1020.0 |
| 20260502005103 | 47 | 119 | 0.0 | 0.0 | 0.00 | 0.00 | 0.00 | 92 | 1020.1 |
| 20260502004103 | 47 | 119 | 0.0 | 1.0 | 0.00 | 0.00 | 0.00 | 91 | 1020.2 |
| 20260502003603 | 48 | 119 | 0.0 | 1.0 | 0.00 | 0.00 | 0.00 | 91 | 1020.2 |
| 20260502003104 | 48 | 119 | 0.0 | 1.0 | 0.00 | 0.00 | 0.00 | 91 | 1020.2 |
| 20260502002603 | 48 | 119 | 0.0 | 1.0 | 0.00 | 0.00 | 0.00 | 91 | 1020.1 |
| 20260502002103 | 48 | 119 | 0.0 | 0.0 | 0.00 | 0.00 | 0.00 | 91 | 1020.1 |
| 20260502001603 | 48 | 119 | 0.0 | 1.0 | 0.00 | 0.00 | 0.00 | 90 | 1020.2 |
| 20260502001103 | 48 | 119 | 0.0 | 0.0 | 0.00 | 0.00 | 0.00 | 90 | 1020.2 |
| 20260501233104 | 50 | 119 | 0.0 | 1.0 | 0.00 | 0.00 | 0.00 | 89 | 1020.6 |
| 20260501232603 | 50 | 119 | 0.0 | 1.0 | 0.00 | 0.00 | 0.00 | 89 | 1020.7 |
| 20260501231603 | 50 | 119 | 0.0 | 1.0 | 0.00 | 0.00 | 0.00 | 88 | 1020.9 |
| 20260501225603 | 51 | 136 | 0.0 | 1.0 | 0.00 | 0.00 | 0.00 | 88 | 1021.0 |
| 20260501225103 | 51 | 134 | 0.0 | 1.0 | 0.00 | 0.00 | 0.00 | 88 | 1021.0 |
| 20260501224603 | 51 | 124 | 0.0 | 1.0 | 0.00 | 0.00 | 0.00 | 88 | 1021.0 |
| 20260501224103 | 51 | 122 | 0.0 | 1.0 | 0.00 | 0.00 | 0.00 | 88 | 1021.0 |
| 20260501223103 | 51 | 133 | 0.0 | 1.0 | 0.00 | 0.00 | 0.00 | 89 | 1021.0 |
| 20260501222603 | 51 | 136 | 1.0 | 2.0 | 0.00 | 0.00 | 0.00 | 89 | 1021.0 |
| 20260501221603 | 52 | 124 | 0.0 | 1.0 | 0.00 | 0.00 | 0.00 | 90 | 1020.9 |
| 20260501220103 | 52 | 133 | 0.0 | 2.0 | 0.00 | 0.00 | 0.00 | 90 | 1020.9 |
| 20260501214603 | 53 | 138 | 0.0 | 1.0 | 0.00 | 0.00 | 0.00 | 89 | 1020.8 |
| 20260501213603 | 53 | 130 | 0.0 | 1.0 | 0.00 | 0.00 | 0.00 | 89 | 1020.7 |
| 20260501212104 | 53 | 314 | 0.0 | 0.0 | 0.00 | 0.00 | 0.00 | 89 | 1020.7 |
| 20260501210602 | 54 | 314 | 0.0 | 0.0 | 0.00 | 0.00 | 0.00 | 89 | 1020.6 |
| 20260501204603 | 55 | 314 | 0.0 | 0.0 | 0.00 | 0.00 | 0.00 | 89 | 1020.6 |
| 20260501203103 | 55 | 314 | 0.0 | 0.0 | 0.00 | 0.00 | 0.00 | 88 | 1020.6 |
| 20260501202104 | 56 | 314 | 0.0 | 0.0 | 0.00 | 0.00 | 0.00 | 88 | 1020.6 |
| 20260501200603 | 56 | 296 | 0.0 | 2.0 | 0.00 | 0.00 | 0.00 | 87 | 1020.5 |
| 20260501195603 | 57 | 299 | 0.0 | 0.0 | 0.00 | 0.00 | 0.00 | 87 | 1020.5 |
| 20260501194103 | 57 | 298 | 0.0 | 1.0 | 0.00 | 0.00 | 0.00 | 86 | 1020.4 |
| 20260501193103 | 58 | 298 | 0.0 | 1.0 | 0.00 | 0.00 | 0.00 | 85 | 1020.2 |
| 20260501192103 | 58 | 312 | 0.0 | 3.0 | 0.00 | 0.00 | 0.00 | 84 | 1020.2 |
| 20260501191603 | 59 | 13 | 2.0 | 6.0 | 0.00 | 0.00 | 0.00 | 84 | 1020.1 |
| 20260501191103 | 59 | 342 | 2.0 | 6.0 | 0.00 | 0.00 | 0.00 | 83 | 1020.1 |
| 20260501182104 | 62 | 311 | 0.0 | 2.0 | 0.00 | 0.00 | 0.00 | 78 | 1019.8 |
| 20260501181603 | 62 | 305 | 1.0 | 3.0 | 0.00 | 0.00 | 0.00 | 78 | 1019.8 |
| 20260501175104 | 63 | 245 | 0.0 | 3.0 | 0.00 | 0.00 | 0.00 | 75 | 1019.9 |
| 20260501174103 | 63 | 308 | 0.0 | 2.0 | 0.00 | 0.00 | 0.00 | 75 | 1019.8 |